OMD641 KDTW-KMZJ

Flight info

Callsign OMD641
Flight time N/A
Altitude 34000
Route CRL026017 SMUUV OBK LNK KD60A GLD/N0461F360 ALS J102 ZUN KA24Q TUS KMZJ
Aircraft A320/M-SDE3FGHIRWY/LB1

Departure

Time N/A
Airport Detroit Metropolitan Wayne County Airport (KDTW)

Arrival

Time 2026-05-06 22:15
Airport Pinal Airpark (KMZJ)
Time Latitude Longitude Altitude Speed Heading
2026-05-06 21:39 34.71071 -109.37977 34113 ft 411 kts 220°
2026-05-06 21:39 34.66438 -109.42062 34108 ft 411 kts 220°
2026-05-06 21:40 34.61842 -109.46116 34115 ft 411 kts 220°
2026-05-06 21:40 34.57216 -109.50196 34112 ft 410 kts 219°
2026-05-06 21:41 34.52604 -109.54263 34134 ft 409 kts 220°
2026-05-06 21:41 34.47991 -109.58303 34126 ft 409 kts 219°
2026-05-06 21:42 34.43377 -109.62335 34113 ft 409 kts 219°
2026-05-06 21:42 34.38767 -109.66357 34100 ft 407 kts 219°
2026-05-06 21:43 34.34195 -109.70343 34131 ft 407 kts 219°
2026-05-06 21:43 34.29592 -109.74347 34145 ft 406 kts 219°
2026-05-06 21:44 34.24991 -109.78343 34158 ft 406 kts 219°
2026-05-06 21:44 34.20397 -109.82335 34157 ft 406 kts 219°
2026-05-06 21:45 34.15835 -109.86289 34142 ft 406 kts 219°
2026-05-06 21:45 34.11241 -109.90264 34148 ft 406 kts 219°
2026-05-06 21:46 34.07285 -109.93687 34158 ft 405 kts 219°
2026-05-06 21:46 34.02693 -109.97652 34151 ft 405 kts 219°
2026-05-06 21:47 33.97828 -110.01143 34160 ft 411 kts 209°
2026-05-06 21:47 33.92506 -110.03761 34164 ft 413 kts 206°
2026-05-06 21:48 33.87205 -110.06315 34181 ft 413 kts 207°
2026-05-06 21:48 33.82514 -110.08596 34141 ft 413 kts 207°
2026-05-06 21:49 33.77194 -110.11190 34154 ft 412 kts 207°
2026-05-06 21:49 33.71872 -110.13781 34076 ft 410 kts 207°
2026-05-06 21:50 33.69231 -110.15065 33756 ft 410 kts 207°
2026-05-06 21:50 33.66581 -110.16357 33275 ft 410 kts 207°
2026-05-06 21:50 33.64687 -110.17284 32945 ft 407 kts 206°
2026-05-06 21:50 33.62066 -110.18558 32479 ft 406 kts 206°
2026-05-06 21:51 33.59456 -110.19825 32034 ft 404 kts 206°
2026-05-06 21:51 33.56845 -110.21090 31609 ft 403 kts 206°
2026-05-06 21:51 33.54233 -110.22362 31163 ft 405 kts 206°
2026-05-06 21:51 33.51610 -110.23643 30713 ft 409 kts 205°
2026-05-06 21:52 33.48959 -110.24925 30264 ft 413 kts 205°
2026-05-06 21:52 33.46285 -110.26216 29814 ft 416 kts 205°
2026-05-06 21:52 33.43598 -110.27519 29365 ft 417 kts 205°
2026-05-06 21:52 33.40896 -110.28833 28914 ft 418 kts 205°
2026-05-06 21:53 33.38206 -110.30143 28465 ft 418 kts 205°
2026-05-06 21:53 33.35518 -110.31456 28014 ft 417 kts 205°
2026-05-06 21:53 33.32833 -110.32761 27563 ft 415 kts 205°
2026-05-06 21:53 33.30155 -110.34059 27112 ft 414 kts 205°
2026-05-06 21:54 33.27528 -110.35329 26668 ft 412 kts 205°
2026-05-06 21:54 33.24872 -110.36607 26217 ft 410 kts 205°
2026-05-06 21:54 33.22228 -110.37882 25765 ft 408 kts 205°
2026-05-06 21:54 33.19602 -110.39149 25315 ft 405 kts 205°
2026-05-06 21:55 33.16998 -110.40404 24865 ft 403 kts 205°
2026-05-06 21:55 33.14406 -110.41650 24414 ft 400 kts 205°
2026-05-06 21:55 33.11830 -110.42890 23963 ft 398 kts 205°
2026-05-06 21:55 33.09272 -110.44121 23512 ft 395 kts 205°
2026-05-06 21:56 33.06729 -110.45342 23061 ft 392 kts 205°
2026-05-06 21:56 33.04204 -110.46555 22610 ft 389 kts 205°
2026-05-06 21:56 33.01695 -110.47757 22152 ft 387 kts 205°
2026-05-06 21:56 32.99212 -110.48947 21700 ft 384 kts 205°
2026-05-06 21:57 32.96748 -110.50133 21260 ft 380 kts 205°
2026-05-06 21:57 32.94333 -110.51293 20829 ft 377 kts 205°
2026-05-06 21:57 32.91909 -110.52454 20381 ft 374 kts 205°
2026-05-06 21:57 32.89499 -110.53604 19950 ft 371 kts 205°
2026-05-06 21:58 32.87111 -110.54746 19508 ft 368 kts 205°
2026-05-06 21:58 32.84740 -110.55878 19059 ft 366 kts 205°
2026-05-06 21:58 32.82384 -110.57002 18628 ft 363 kts 205°
2026-05-06 21:58 32.80049 -110.58117 18184 ft 361 kts 205°
2026-05-06 21:59 32.77721 -110.59223 17733 ft 359 kts 205°
2026-05-06 21:59 32.75410 -110.60324 17285 ft 356 kts 204°
2026-05-06 21:59 32.73113 -110.61414 16841 ft 354 kts 204°
2026-05-06 21:59 32.70827 -110.62495 16387 ft 352 kts 204°
2026-05-06 22:00 32.68558 -110.63571 15955 ft 350 kts 204°
2026-05-06 22:00 32.66301 -110.64637 15506 ft 348 kts 204°
2026-05-06 22:00 32.64057 -110.65700 15069 ft 347 kts 204°
2026-05-06 22:00 32.61824 -110.66759 14624 ft 345 kts 204°
2026-05-06 22:01 32.59599 -110.67820 14200 ft 343 kts 204°
2026-05-06 22:01 32.57440 -110.68854 14060 ft 334 kts 204°
2026-05-06 22:01 32.55306 -110.69877 14010 ft 329 kts 204°
2026-05-06 22:01 32.53181 -110.70894 14003 ft 330 kts 204°
2026-05-06 22:02 32.51040 -110.71913 14003 ft 333 kts 204°
2026-05-06 22:02 32.48881 -110.72937 14002 ft 335 kts 204°
2026-05-06 22:02 32.46711 -110.73965 14003 ft 336 kts 204°
2026-05-06 22:02 32.44534 -110.74995 14003 ft 337 kts 204°
2026-05-06 22:03 32.42350 -110.76027 14006 ft 338 kts 204°
2026-05-06 22:03 32.40168 -110.77056 14003 ft 338 kts 204°
2026-05-06 22:03 32.37980 -110.78089 14002 ft 338 kts 204°
2026-05-06 22:03 32.35792 -110.79122 14002 ft 338 kts 204°
2026-05-06 22:04 32.33607 -110.80154 14003 ft 338 kts 204°
2026-05-06 22:04 32.31420 -110.81186 14003 ft 338 kts 204°
2026-05-06 22:04 32.29230 -110.82214 14003 ft 337 kts 204°
2026-05-06 22:04 32.27074 -110.83231 13975 ft 329 kts 204°
2026-05-06 22:05 32.24999 -110.84210 13774 ft 323 kts 203°
2026-05-06 22:05 32.22935 -110.85179 13527 ft 316 kts 203°
2026-05-06 22:05 32.20908 -110.86129 13277 ft 310 kts 203°
2026-05-06 22:05 32.19266 -110.86898 13064 ft 303 kts 203°
2026-05-06 22:06 32.17329 -110.87806 12813 ft 296 kts 203°
2026-05-06 22:06 32.15432 -110.88693 12561 ft 290 kts 203°
2026-05-06 22:06 32.13650 -110.89746 12291 ft 285 kts 216°
2026-05-06 22:06 32.12400 -110.91509 12034 ft 280 kts 242°
2026-05-06 22:07 32.11943 -110.93718 11786 ft 279 kts 268°
2026-05-06 22:07 32.12353 -110.95922 11541 ft 283 kts 293°
2026-05-06 22:07 32.13569 -110.97757 11293 ft 288 kts 318°
2026-05-06 22:07 32.15350 -110.98855 11061 ft 291 kts 338°
2026-05-06 22:08 32.17181 -110.99881 10721 ft 292 kts 327°
2026-05-06 22:08 32.18810 -111.01314 10389 ft 291 kts 323°
2026-05-06 22:08 32.20437 -111.02730 10038 ft 289 kts 323°
2026-05-06 22:08 32.22012 -111.04140 9688 ft 287 kts 322°
2026-05-06 22:09 32.23581 -111.05582 9333 ft 285 kts 322°
2026-05-06 22:09 32.25113 -111.07026 8962 ft 278 kts 321°
2026-05-06 22:09 32.26608 -111.08451 8544 ft 274 kts 321°
2026-05-06 22:09 32.28085 -111.09847 8088 ft 269 kts 322°
2026-05-06 22:10 32.29603 -111.11113 7637 ft 265 kts 326°
2026-05-06 22:10 32.31140 -111.12290 7187 ft 261 kts 327°
2026-05-06 22:10 32.32664 -111.13427 6737 ft 257 kts 328°
2026-05-06 22:10 32.34158 -111.14533 6305 ft 248 kts 328°
2026-05-06 22:11 32.35586 -111.15588 5950 ft 235 kts 328°
2026-05-06 22:11 32.36926 -111.16591 5600 ft 226 kts 327°
2026-05-06 22:11 32.38199 -111.17622 5246 ft 218 kts 324°
2026-05-06 22:11 32.39355 -111.18698 4896 ft 201 kts 320°
2026-05-06 22:12 32.40311 -111.19806 4596 ft 186 kts 315°
2026-05-06 22:12 32.41219 -111.20897 4376 ft 188 kts 315°
2026-05-06 22:12 32.42141 -111.22005 4163 ft 189 kts 315°
2026-05-06 22:12 32.43064 -111.23111 3961 ft 188 kts 315°
2026-05-06 22:13 32.43992 -111.24197 3757 ft 187 kts 315°
2026-05-06 22:13 32.44897 -111.25260 3541 ft 176 kts 315°
2026-05-06 22:13 32.45728 -111.26244 3281 ft 164 kts 315°
2026-05-06 22:13 32.46511 -111.27191 3020 ft 158 kts 314°
2026-05-06 22:14 32.47284 -111.28123 2795 ft 159 kts 315°
2026-05-06 22:14 32.48057 -111.29045 2573 ft 160 kts 315°
2026-05-06 22:14 32.48843 -111.29982 2359 ft 160 kts 315°
2026-05-06 22:14 32.49624 -111.30913 2115 ft 157 kts 315°
2026-05-06 22:15 32.50378 -111.31813 1921 ft 148 kts 315°
2026-05-06 22:15 32.51039 -111.32598 1904 ft 113 kts 315°
2026-05-06 22:15 32.51393 -111.33015 1904 ft 34 kts 316°
2026-05-06 22:15 32.51539 -111.33204 1904 ft 25 kts 313°
2026-05-06 22:16 32.51650 -111.33278 1904 ft 17 kts
2026-05-06 22:16 32.51753 -111.33274 1904 ft 8 kts 18°
2026-05-06 22:16 32.51764 -111.33228 1904 ft 7 kts 111°
2026-05-06 22:16 32.51725 -111.33161 1904 ft 12 kts 134°
2026-05-06 22:17 32.51655 -111.33079 1904 ft 17 kts 135°
2026-05-06 22:17 32.51564 -111.32972 1904 ft 19 kts 135°
2026-05-06 22:17 32.51469 -111.32862 1904 ft 19 kts 135°
2026-05-06 22:17 32.51375 -111.32748 1904 ft 19 kts 134°
2026-05-06 22:18 32.51282 -111.32632 1904 ft 17 kts 134°
2026-05-06 22:18 32.51222 -111.32561 1904 ft 8 kts 134°
2026-05-06 22:18 32.51212 -111.32530 1904 ft 4 kts 62°
2026-05-06 22:18 32.51231 -111.32509 1904 ft 5 kts 43°
2026-05-06 22:19 32.51259 -111.32476 1904 ft 4 kts 46°
2026-05-06 22:19 32.51276 -111.32456 1904 ft 0 kts 43°